Weather History for Slayton, MN

Change the Weather History Date:

Saturday, November 19, 2011

  Actual Average (KOTG) Record (KOTG)
Temperature  
Mean Temperature 22 °F -  
Max Temperature 29 °F 36 °F 62 °F (1979)
Min Temperature 14 °F 22 °F 1 °F (1986)
Degree Days  
Heating Degree Days 44    
Moisture  
Dew Point 17 °F    
Average Humidity 84    
Maximum Humidity 91    
Minimum Humidity 73    
Precipitation  
Precipitation 0.00 in - - ()
Sea Level Pressure  
Sea Level Pressure 29.83 in    
Wind  
Wind Speed 19 mph (North)    
Max Wind Speed 28 mph    
Max Gust Speed 34 mph    
Visibility 8 miles    
Events Snow    
Averages and records for this station are not official NWS values.
T = Trace of Precipitation, MM = Missing Value Source: NWS Daily Summary

Daily Weather History Graph

Daily Weather History Graph

Search for Another Location

Airport:

Trip Planner

Search our weather history database for the weather conditions in past years. The results will help you decide how hot, cold, wet, or windy it might be!

Date:

Astronomy

Nov. 19, 2011 Rise Set
Actual Time 7:22 AM CST 4:53 PM CST
Civil Twilight 6:51 AM CST 5:25 PM CST
Nautical Twilight 6:16 AM CST 6:00 PM CST
Astronomical Twilight 5:42 AM CST 6:34 PM CST
Moon 12:31 AM CST (11/19) 1:23 PM CST (11/19)
Length of Visible Light 10h 33m
Length of Day
9h 30m
Last Quarter, 38% of the Moon is Illuminated
Nov 19
Last Quarter
Nov 25
New
Dec 2
First Quarter
Dec 10
Full
Dec 17
Last Quarter

Hourly Weather History & Observations

Time (CST) Temp. Windchill Dew Point Humidity Pressure Visibility Wind Dir Wind Speed Gust Speed Precip Events Conditions
12:15 AM 29.1 °F 16.4 °F 23.9 °F 81% 29.77 in 10.0 mi North 19.6 mph - N/A   Overcast
12:35 AM 28.4 °F 17.5 °F 23.7 °F 83% 29.78 in 10.0 mi North 13.8 mph 18.4 mph N/A   Scattered Clouds
12:55 AM 27.5 °F 16.3 °F 23.0 °F 83% 29.76 in 10.0 mi North 13.8 mph - N/A   Mostly Cloudy
1:15 AM 27.0 °F 13.9 °F 22.6 °F 84% 29.76 in 10.0 mi North 18.4 mph 25.3 mph N/A   Scattered Clouds
1:35 AM 26.6 °F 13.4 °F 21.9 °F 82% 29.74 in 10.0 mi North 18.4 mph 24.2 mph N/A   Clear
1:55 AM 27.0 °F 13.5 °F 21.2 °F 79% 29.72 in 10.0 mi North 19.6 mph 26.5 mph N/A   Clear
2:15 AM 26.6 °F 13.1 °F 20.8 °F 79% 29.73 in 10.0 mi North 19.6 mph 27.6 mph N/A   Clear
2:35 AM 26.6 °F 12.0 °F 20.7 °F 78% 29.74 in 10.0 mi North 23.0 mph 27.6 mph N/A   Clear
2:55 AM 26.4 °F 12.8 °F 20.3 °F 78% 29.75 in 10.0 mi North 19.6 mph 25.3 mph N/A   Clear
3:15 AM 26.2 °F 11.5 °F 20.3 °F 78% 29.74 in 10.0 mi North 23.0 mph 27.6 mph N/A   Clear
3:34 AM 25.7 °F 11.9 °F 20.3 °F 80% 29.74 in 10.0 mi North 19.6 mph 29.9 mph N/A   Clear
3:55 AM 25.3 °F 9.7 °F 19.4 °F 78% 29.73 in 10.0 mi North 25.3 mph 32.2 mph N/A   Clear
4:15 AM 24.8 °F 9.6 °F 18.3 °F 76% 29.74 in 10.0 mi North 23.0 mph 29.9 mph N/A   Clear
4:35 AM 24.6 °F 10.9 °F 18.3 °F 77% 29.75 in 10.0 mi North 18.4 mph 26.5 mph N/A   Clear
4:55 AM 24.4 °F 10.6 °F 18.0 °F 76% 29.74 in 10.0 mi NNE 18.4 mph 29.9 mph N/A   Clear
5:15 AM 23.9 °F 11.7 °F 18.1 °F 79% 29.73 in 10.0 mi NNE 13.8 mph 18.4 mph N/A   Clear
5:35 AM 23.7 °F 10.5 °F 18.0 °F 79% 29.72 in 10.0 mi NNE 16.1 mph 20.7 mph N/A   Clear
5:55 AM 23.5 °F 11.3 °F 18.1 °F 80% 29.74 in 10.0 mi NNE 13.8 mph 21.9 mph N/A   Clear
6:15 AM 22.8 °F 9.9 °F 17.6 °F 80% 29.76 in 10.0 mi North 15.0 mph 19.6 mph N/A   Clear
6:35 AM 22.6 °F 10.1 °F 17.6 °F 81% 29.78 in 10.0 mi North 13.8 mph 18.4 mph N/A   Scattered Clouds
6:55 AM 22.8 °F 9.4 °F 18.0 °F 82% 29.78 in 10.0 mi North 16.1 mph 20.7 mph N/A   Mostly Cloudy
7:15 AM 23.0 °F 8.0 °F 17.6 °F 80% 29.76 in 10.0 mi North 20.7 mph 26.5 mph N/A   Overcast
7:55 AM 22.8 °F 9.4 °F 16.7 °F 77% 29.73 in 10.0 mi North 16.1 mph 24.2 mph N/A   Overcast
8:15 AM 23.0 °F 8.0 °F 16.7 °F 77% 29.74 in 10.0 mi North 20.7 mph 25.3 mph N/A   Overcast
8:35 AM 23.0 °F 8.7 °F 16.5 °F 76% 29.74 in 10.0 mi North 18.4 mph 26.5 mph N/A   Overcast
8:54 AM 23.0 °F 6.9 °F 16.2 °F 75% 29.71 in 10.0 mi North 24.2 mph 28.8 mph N/A   Overcast
9:15 AM 23.0 °F 6.9 °F 16.0 °F 74% 29.71 in 10.0 mi North 24.2 mph 29.9 mph N/A   Overcast
9:35 AM 23.0 °F 7.2 °F 16.0 °F 74% 29.73 in 10.0 mi North 23.0 mph 32.2 mph N/A   Overcast
9:55 AM 23.4 °F 7.7 °F 15.8 °F 73% 29.76 in 10.0 mi North 23.0 mph 27.6 mph N/A   Overcast
10:15 AM 22.8 °F 7.4 °F 16.9 °F 78% 29.78 in 7.0 mi North 21.9 mph 28.8 mph N/A   Overcast
10:35 AM 22.5 °F 6.9 °F 18.7 °F 85% 29.77 in 4.0 mi North 21.9 mph 28.8 mph N/A   Overcast
10:55 AM 22.1 °F 5.4 °F 18.9 °F 87% 29.78 in 2.0 mi North 25.3 mph 31.1 mph N/A   Overcast
11:14 AM 22.1 °F 6.0 °F 19.2 °F 89% 29.77 in 1.0 mi North 23.0 mph 32.2 mph N/A Snow Light Snow
12:15 PM 21.9 °F 5.5 °F 19.8 °F 91% 29.77 in 1.2 mi North 24.2 mph 32.2 mph N/A Snow Light Snow
12:35 PM 20.7 °F 4.1 °F 18.3 °F 91% 29.77 in 1.5 mi NNW 23.0 mph 32.2 mph N/A Snow Light Snow
12:55 PM 20.1 °F 3.4 °F 18.0 °F 91% 29.79 in 1.5 mi North 23.0 mph 32.2 mph N/A Snow Light Snow
1:15 PM 19.6 °F 3.1 °F 17.4 °F 91% 29.76 in 2.0 mi North 21.9 mph 31.1 mph N/A Snow Light Snow
1:35 PM 19.2 °F 1.9 °F 16.7 °F 90% 29.79 in 2.5 mi NNW 24.2 mph 34.5 mph N/A   Overcast
1:55 PM 19.0 °F 0.6 °F 16.5 °F 90% 29.81 in 2.5 mi NNW 27.6 mph 34.5 mph N/A   Overcast
2:15 PM 18.9 °F 2.5 °F 16.0 °F 89% 29.82 in 5.0 mi NNW 20.7 mph 34.5 mph N/A   Overcast
2:35 PM 18.5 °F 1.3 °F 15.8 °F 89% 29.83 in 10.0 mi NNW 23.0 mph 29.9 mph N/A   Overcast
2:55 PM 18.0 °F 0.2 °F 14.9 °F 88% 29.84 in 5.0 mi NNW 24.2 mph 32.2 mph N/A Snow Light Snow
3:15 PM 18.0 °F 1.7 °F 14.9 °F 88% 29.86 in 3.0 mi NNW 19.6 mph 28.8 mph N/A Snow Light Snow
3:35 PM 17.6 °F -0.3 °F 14.7 °F 88% 29.88 in 5.0 mi NNW 24.2 mph 33.4 mph N/A Snow Light Snow
3:55 PM 17.2 °F 1.7 °F 14.2 °F 88% 29.88 in 7.0 mi NNW 17.3 mph 28.8 mph N/A Snow Light Snow
4:15 PM 17.2 °F 0.4 °F 14.4 °F 88% 29.90 in 10.0 mi NNW 20.7 mph 25.3 mph N/A   Overcast
4:35 PM 17.2 °F 1.7 °F 14.5 °F 89% 29.92 in 10.0 mi North 17.3 mph 25.3 mph N/A   Overcast
4:55 PM 16.9 °F 0.3 °F 14.4 °F 90% 29.94 in 10.0 mi NNW 19.6 mph 24.2 mph N/A   Overcast
5:15 PM 16.7 °F 1.5 °F 14.0 °F 89% 29.95 in 10.0 mi NNW 16.1 mph - N/A   Overcast
5:55 PM 16.3 °F 1.0 °F 13.8 °F 90% 29.99 in 10.0 mi NNW 16.1 mph 21.9 mph N/A   Overcast
6:15 PM 15.8 °F -0.6 °F 13.1 °F 89% 30.02 in 10.0 mi NNW 18.4 mph 24.2 mph N/A   Overcast
6:35 PM 15.6 °F -1.3 °F 13.1 °F 90% 30.02 in 10.0 mi NW 19.6 mph 27.6 mph N/A   Overcast
6:55 PM 15.6 °F 0.6 °F 12.9 °F 89% 30.05 in 10.0 mi NW 15.0 mph 24.2 mph N/A   Overcast
7:15 PM 15.6 °F 0.1 °F 12.6 °F 88% 30.06 in 10.0 mi NW 16.1 mph 25.3 mph N/A   Overcast
7:35 PM 15.6 °F 1.2 °F 12.7 °F 88% 30.07 in 10.0 mi NW 13.8 mph 23.0 mph N/A Snow Light Snow
7:55 PM 15.4 °F -0.6 °F 12.2 °F 87% 30.09 in 10.0 mi NW 17.3 mph 24.2 mph N/A   Overcast
8:15 PM 15.4 °F -1.1 °F 12.0 °F 86% 30.10 in 10.0 mi NW 18.4 mph 25.3 mph N/A Snow Light Snow
8:35 PM 15.3 °F -1.3 °F 11.5 °F 85% 30.11 in 10.0 mi NW 18.4 mph 24.2 mph N/A Snow Light Snow
8:54 PM 14.9 °F -1.3 °F 11.3 °F 86% 30.13 in 10.0 mi NNW 17.3 mph 24.2 mph N/A Snow Light Snow
9:15 PM 14.7 °F -0.5 °F 10.9 °F 85% 30.12 in 10.0 mi NNW 15.0 mph - N/A Snow Light Snow
9:55 PM 13.8 °F -2.2 °F 10.4 °F 86% 30.13 in 5.0 mi NNW 16.1 mph 25.3 mph N/A Snow Light Snow
10:15 PM 13.3 °F 1.1 °F 9.9 °F 86% 30.15 in 10.0 mi NNW 9.2 mph - N/A Snow Light Snow
10:34 PM 13.3 °F -1.8 °F 9.9 °F 86% 30.16 in 10.0 mi NNW 13.8 mph 17.3 mph N/A Snow Light Snow
10:55 PM 13.1 °F 0.1 °F 10.0 °F 88% 30.17 in 7.0 mi NNW 10.4 mph - N/A Snow Light Snow
11:15 PM 13.5 °F 2.2 °F 9.9 °F 86% 30.18 in 10.0 mi NNW 8.1 mph - N/A   Overcast
11:35 PM 13.1 °F 0.1 °F 9.5 °F 86% 30.18 in 10.0 mi NNW 10.4 mph 17.3 mph N/A Snow Light Snow
11:56 PM 12.6 °F 0.2 °F 9.1 °F 86% 30.19 in 10.0 mi NW 9.2 mph 18.4 mph N/A   Mostly Cloudy